Home > Weather > Firenze > Past weeks

Flag for Italy Weather for the Past 2 Weeks in Firenze, Italy

Now
55 °F

Rain. Passing clouds.


Feels Like: 55 °F
Forecast: 50 / 62 °F
Wind: 5 mph from Southwest

Location: Florence / Peretola

Current Time: Apr 30, 2016 at 10:53:09 PM

Latest Report: Apr 30, 2016 at 10:20 PM


Visibility: 2 mi

Pressure: 29.92 "Hg

Humidity: 94%

Dew Point: 54 °F

Location of FirenzeLocation

Historic Weather in Firenze — Graph

°F

Firenze Temperature Yesterday

Maximum temperature yesterday: 72 °F (at 3:20 PM)
Minimum temperature yesterday: 41 °F (at 6:20 AM)
Average temperature yesterday: 58 °F

High & Low Weather Summary for the Past Weeks

 TemperatureHumidityPressure
High77 °F (Apr 21, 1:20 PM)100% (Apr 23, 10:20 AM)30.24 "Hg (Apr 23, 10:20 AM)
Low41 °F (Apr 21, 5:50 AM)19% (Apr 21, 1:20 PM)29.53 "Hg (Apr 24, 4:20 AM)
Average58 °F68%29.92 "Hg
* Reported Apr 15 9:20 PM — Apr 30 9:20 PM, Firenze, Weather by CustomWeather, © 2016

Note: Actual official high and low records may vary slightly from our data, if they occured in-between our weather recording intervals... More about our weather records

Advertising

Firenze Weather History for the Previous 24 Hours

Scroll right to see more
 ConditionsComfort  
Time TempWeatherWind HumidityBarometerVisibility
9:20 PM
Sat, Apr 30
54 °FRain. Partly cloudy.2 mph100%29.92 "Hg4 mi
8:50 PM55 °FRain. Broken clouds.3 mph94%29.92 "Hg3 mi
8:20 PM55 °FRain. Broken clouds.2 mph94%29.92 "Hg3 mi
7:50 PM55 °FLight rain. Partly sunny.2 mph94%29.92 "HgN/A
7:20 PM55 °FRain. Broken clouds.6 mph94%29.92 "HgN/A
6:50 PM55 °FRain. Broken clouds.8 mph94%29.95 "Hg2 mi
6:20 PM57 °FBroken clouds.6 mph88%29.95 "HgN/A
5:50 PM57 °FRain. Broken clouds.7 mph88%29.92 "Hg5 mi
5:20 PM59 °FRain. Broken clouds.8 mph82%29.92 "HgN/A
4:50 PM61 °FLight rain. Broken clouds.3 mph77%29.92 "HgN/A
4:20 PM61 °FLight rain. Partly sunny.9 mph77%29.92 "HgN/A
3:50 PM63 °FLight rain. Partly sunny.7 mph73%29.95 "HgN/A
3:20 PM70 °FScattered clouds.5 mph43%29.95 "HgN/A
2:50 PM70 °FPartly sunny.5 mph35%29.95 "HgN/A
2:20 PM73 °FScattered clouds.2 mph33%29.95 "HgN/A
1:50 PM72 °FScattered clouds.3 mph38%29.98 "HgN/A
1:20 PM72 °FPassing clouds.3 mph41%29.98 "HgN/A
12:50 PM72 °FPassing clouds.2 mph44%29.98 "HgN/A
12:20 PM68 °FPassing clouds.3 mph49%30.01 "HgN/A
11:50 AM68 °FSunny.3 mph46%30.01 "Hg10 mi
11:20 AM64 °FSunny.2 mph56%30.01 "Hg10 mi
10:50 AM63 °FSunny.2 mph64%30.04 "Hg10 mi
10:20 AM61 °FSunny.2 mph68%30.04 "Hg10 mi
9:50 AM59 °FSunny.1 mph72%30.04 "Hg10 mi
9:20 AM57 °FSunny.1 mph72%30.04 "Hg10 mi
8:50 AM55 °FSunny.No wind77%30.04 "Hg10 mi
8:20 AM54 °FSunny.No wind82%30.04 "Hg10 mi
7:50 AM52 °FSunny.No wind88%30.04 "Hg10 mi
7:20 AM50 °FSunny.No wind94%30.04 "Hg10 mi
6:50 AM46 °FClear.No wind100%30.04 "Hg10 mi
6:20 AM45 °FClear.1 mph100%30.04 "Hg10 mi
5:50 AM46 °FClear.2 mph93%30.04 "Hg10 mi
5:20 AM45 °FClear.No wind93%30.04 "Hg10 mi
4:50 AM46 °FClear.2 mph93%30.04 "Hg10 mi
4:20 AM46 °FClear.2 mph93%30.04 "Hg10 mi
3:50 AM46 °FClear.2 mph93%30.04 "Hg10 mi
3:20 AM48 °FClear.2 mph94%30.04 "Hg10 mi
2:50 AM46 °FClear.1 mph87%30.04 "Hg10 mi
2:20 AM48 °FClear.No wind94%30.04 "Hg10 mi
1:50 AM50 °FClear.No wind88%30.07 "Hg10 mi
1:20 AM50 °FPassing clouds.2 mph88%30.07 "HgN/A
12:50 AM50 °FPassing clouds.2 mph82%30.07 "HgN/A
12:20 AM52 °FPassing clouds.No wind82%30.07 "HgN/A
11:50 PM
Fri, Apr 29
52 °FPassing clouds.1 mph82%30.07 "HgN/A
11:20 PM55 °FClear.1 mph77%30.07 "Hg10 mi
10:50 PM55 °FPassing clouds.3 mph77%30.04 "HgN/A
10:20 PM55 °FPassing clouds.5 mph72%30.04 "HgN/A
Weather by CustomWeather, © 2016

See weather overviewHow to use our weather pages